<?xml version="1.0"?>
<gpx xmlns="http://www.topografix.com/GPX/1/1" xmlns:xsi="http://www.w3.org/2001/XMLSchema-instance" version="1.1" creator="GPX RubyGem 1.0.0 -- http://dougfales.github.io/gpx/" xsi:schemaLocation="http://www.topografix.com/GPX/1/1 http://www.topografix.com/GPX/1/1/gpx.xsd">
  <metadata>
    <name/>
    <time>2026-05-07T14:59:40+00:00</time>
    <bound minlat="90.0" minlon="180.0" maxlat="-90.0" maxlon="-180.0"/>
  </metadata>
  <trk>
    <name/>
    <trkseg>
      <trkpt lat="47.559003" lon="10.210044">
        <time>1970-01-01T00:00:00+00:00</time>
        <ele>734.0</ele>
      </trkpt>
      <trkpt lat="47.559262" lon="10.210133">
        <time>1970-01-01T00:00:00+00:00</time>
        <ele>731.0</ele>
      </trkpt>
      <trkpt lat="47.559082" lon="10.210544">
        <time>1970-01-01T00:00:00+00:00</time>
        <ele>732.0</ele>
      </trkpt>
      <trkpt lat="47.558941" lon="10.210946">
        <time>1970-01-01T00:00:00+00:00</time>
        <ele>732.0</ele>
      </trkpt>
      <trkpt lat="47.55885" lon="10.211372">
        <time>1970-01-01T00:00:00+00:00</time>
        <ele>733.0</ele>
      </trkpt>
      <trkpt lat="47.558364" lon="10.211223">
        <time>1970-01-01T00:00:00+00:00</time>
        <ele>733.0</ele>
      </trkpt>
      <trkpt lat="47.558178" lon="10.211206">
        <time>1970-01-01T00:00:00+00:00</time>
        <ele>733.0</ele>
      </trkpt>
      <trkpt lat="47.557807" lon="10.211605">
        <time>1970-01-01T00:00:00+00:00</time>
        <ele>735.0</ele>
      </trkpt>
      <trkpt lat="47.557684" lon="10.211932">
        <time>1970-01-01T00:00:00+00:00</time>
        <ele>736.0</ele>
      </trkpt>
      <trkpt lat="47.557636" lon="10.212123">
        <time>1970-01-01T00:00:00+00:00</time>
        <ele>736.0</ele>
      </trkpt>
      <trkpt lat="47.557416" lon="10.213488">
        <time>1970-01-01T00:00:00+00:00</time>
        <ele>739.0</ele>
      </trkpt>
      <trkpt lat="47.557453" lon="10.213644">
        <time>1970-01-01T00:00:00+00:00</time>
        <ele>740.0</ele>
      </trkpt>
      <trkpt lat="47.557362" lon="10.213738">
        <time>1970-01-01T00:00:00+00:00</time>
        <ele>740.0</ele>
      </trkpt>
      <trkpt lat="47.557099" lon="10.214009">
        <time>1970-01-01T00:00:00+00:00</time>
        <ele>743.0</ele>
      </trkpt>
      <trkpt lat="47.556911" lon="10.214201">
        <time>1970-01-01T00:00:00+00:00</time>
        <ele>744.0</ele>
      </trkpt>
      <trkpt lat="47.556838" lon="10.214304">
        <time>1970-01-01T00:00:00+00:00</time>
        <ele>744.0</ele>
      </trkpt>
      <trkpt lat="47.556786" lon="10.214437">
        <time>1970-01-01T00:00:00+00:00</time>
        <ele>744.0</ele>
      </trkpt>
      <trkpt lat="47.556664" lon="10.214934">
        <time>1970-01-01T00:00:00+00:00</time>
        <ele>744.0</ele>
      </trkpt>
      <trkpt lat="47.556348" lon="10.214757">
        <time>1970-01-01T00:00:00+00:00</time>
        <ele>744.0</ele>
      </trkpt>
      <trkpt lat="47.556265" lon="10.21478">
        <time>1970-01-01T00:00:00+00:00</time>
        <ele>744.0</ele>
      </trkpt>
      <trkpt lat="47.556176" lon="10.214683">
        <time>1970-01-01T00:00:00+00:00</time>
        <ele>745.0</ele>
      </trkpt>
      <trkpt lat="47.556026" lon="10.214517">
        <time>1970-01-01T00:00:00+00:00</time>
        <ele>748.0</ele>
      </trkpt>
      <trkpt lat="47.555961" lon="10.214422">
        <time>1970-01-01T00:00:00+00:00</time>
        <ele>749.0</ele>
      </trkpt>
      <trkpt lat="47.555909" lon="10.214338">
        <time>1970-01-01T00:00:00+00:00</time>
        <ele>749.0</ele>
      </trkpt>
      <trkpt lat="47.555965" lon="10.214154">
        <time>1970-01-01T00:00:00+00:00</time>
        <ele>749.0</ele>
      </trkpt>
      <trkpt lat="47.555687" lon="10.214002">
        <time>1970-01-01T00:00:00+00:00</time>
        <ele>752.0</ele>
      </trkpt>
      <trkpt lat="47.555316" lon="10.213833">
        <time>1970-01-01T00:00:00+00:00</time>
        <ele>756.0</ele>
      </trkpt>
      <trkpt lat="47.55517" lon="10.213822">
        <time>1970-01-01T00:00:00+00:00</time>
        <ele>758.0</ele>
      </trkpt>
      <trkpt lat="47.554982" lon="10.213877">
        <time>1970-01-01T00:00:00+00:00</time>
        <ele>759.0</ele>
      </trkpt>
      <trkpt lat="47.554884" lon="10.213898">
        <time>1970-01-01T00:00:00+00:00</time>
        <ele>761.0</ele>
      </trkpt>
      <trkpt lat="47.554861" lon="10.213903">
        <time>1970-01-01T00:00:00+00:00</time>
        <ele>762.0</ele>
      </trkpt>
      <trkpt lat="47.554751" lon="10.213878">
        <time>1970-01-01T00:00:00+00:00</time>
        <ele>766.0</ele>
      </trkpt>
      <trkpt lat="47.554587" lon="10.213744">
        <time>1970-01-01T00:00:00+00:00</time>
        <ele>772.0</ele>
      </trkpt>
      <trkpt lat="47.554312" lon="10.213398">
        <time>1970-01-01T00:00:00+00:00</time>
        <ele>782.0</ele>
      </trkpt>
      <trkpt lat="47.554286" lon="10.213364">
        <time>1970-01-01T00:00:00+00:00</time>
        <ele>783.0</ele>
      </trkpt>
      <trkpt lat="47.554061" lon="10.213352">
        <time>1970-01-01T00:00:00+00:00</time>
        <ele>794.0</ele>
      </trkpt>
      <trkpt lat="47.5538" lon="10.213371">
        <time>1970-01-01T00:00:00+00:00</time>
        <ele>801.0</ele>
      </trkpt>
      <trkpt lat="47.553723" lon="10.213311">
        <time>1970-01-01T00:00:00+00:00</time>
        <ele>801.0</ele>
      </trkpt>
      <trkpt lat="47.553604" lon="10.213168">
        <time>1970-01-01T00:00:00+00:00</time>
        <ele>803.0</ele>
      </trkpt>
      <trkpt lat="47.553552" lon="10.213006">
        <time>1970-01-01T00:00:00+00:00</time>
        <ele>805.0</ele>
      </trkpt>
      <trkpt lat="47.553477" lon="10.212866">
        <time>1970-01-01T00:00:00+00:00</time>
        <ele>807.0</ele>
      </trkpt>
      <trkpt lat="47.553367" lon="10.212785">
        <time>1970-01-01T00:00:00+00:00</time>
        <ele>812.0</ele>
      </trkpt>
      <trkpt lat="47.552631" lon="10.212539">
        <time>1970-01-01T00:00:00+00:00</time>
        <ele>834.0</ele>
      </trkpt>
      <trkpt lat="47.552222" lon="10.212167">
        <time>1970-01-01T00:00:00+00:00</time>
        <ele>842.0</ele>
      </trkpt>
      <trkpt lat="47.552136" lon="10.212086">
        <time>1970-01-01T00:00:00+00:00</time>
        <ele>844.0</ele>
      </trkpt>
      <trkpt lat="47.551733" lon="10.211562">
        <time>1970-01-01T00:00:00+00:00</time>
        <ele>853.0</ele>
      </trkpt>
      <trkpt lat="47.551609" lon="10.211338">
        <time>1970-01-01T00:00:00+00:00</time>
        <ele>856.0</ele>
      </trkpt>
      <trkpt lat="47.551305" lon="10.210863">
        <time>1970-01-01T00:00:00+00:00</time>
        <ele>856.0</ele>
      </trkpt>
      <trkpt lat="47.551122" lon="10.210465">
        <time>1970-01-01T00:00:00+00:00</time>
        <ele>864.0</ele>
      </trkpt>
      <trkpt lat="47.551013" lon="10.210327">
        <time>1970-01-01T00:00:00+00:00</time>
        <ele>869.0</ele>
      </trkpt>
      <trkpt lat="47.550851" lon="10.210046">
        <time>1970-01-01T00:00:00+00:00</time>
        <ele>877.0</ele>
      </trkpt>
      <trkpt lat="47.550772" lon="10.209993">
        <time>1970-01-01T00:00:00+00:00</time>
        <ele>880.0</ele>
      </trkpt>
      <trkpt lat="47.550336" lon="10.209847">
        <time>1970-01-01T00:00:00+00:00</time>
        <ele>894.0</ele>
      </trkpt>
      <trkpt lat="47.550212" lon="10.209702">
        <time>1970-01-01T00:00:00+00:00</time>
        <ele>895.0</ele>
      </trkpt>
      <trkpt lat="47.55012" lon="10.20967">
        <time>1970-01-01T00:00:00+00:00</time>
        <ele>896.0</ele>
      </trkpt>
      <trkpt lat="47.549807" lon="10.209624">
        <time>1970-01-01T00:00:00+00:00</time>
        <ele>896.0</ele>
      </trkpt>
      <trkpt lat="47.549691" lon="10.209554">
        <time>1970-01-01T00:00:00+00:00</time>
        <ele>897.0</ele>
      </trkpt>
      <trkpt lat="47.549459" lon="10.209451">
        <time>1970-01-01T00:00:00+00:00</time>
        <ele>901.0</ele>
      </trkpt>
      <trkpt lat="47.549246" lon="10.209234">
        <time>1970-01-01T00:00:00+00:00</time>
        <ele>907.0</ele>
      </trkpt>
      <trkpt lat="47.549136" lon="10.209032">
        <time>1970-01-01T00:00:00+00:00</time>
        <ele>910.0</ele>
      </trkpt>
      <trkpt lat="47.549055" lon="10.209008">
        <time>1970-01-01T00:00:00+00:00</time>
        <ele>911.0</ele>
      </trkpt>
      <trkpt lat="47.548831" lon="10.209005">
        <time>1970-01-01T00:00:00+00:00</time>
        <ele>909.0</ele>
      </trkpt>
      <trkpt lat="47.548705" lon="10.208963">
        <time>1970-01-01T00:00:00+00:00</time>
        <ele>908.0</ele>
      </trkpt>
      <trkpt lat="47.548401" lon="10.20854">
        <time>1970-01-01T00:00:00+00:00</time>
        <ele>915.0</ele>
      </trkpt>
      <trkpt lat="47.548054" lon="10.207931">
        <time>1970-01-01T00:00:00+00:00</time>
        <ele>918.0</ele>
      </trkpt>
      <trkpt lat="47.547655" lon="10.207122">
        <time>1970-01-01T00:00:00+00:00</time>
        <ele>916.0</ele>
      </trkpt>
      <trkpt lat="47.547631" lon="10.207072">
        <time>1970-01-01T00:00:00+00:00</time>
        <ele>916.0</ele>
      </trkpt>
      <trkpt lat="47.547394" lon="10.206558">
        <time>1970-01-01T00:00:00+00:00</time>
        <ele>927.0</ele>
      </trkpt>
      <trkpt lat="47.547262" lon="10.20644">
        <time>1970-01-01T00:00:00+00:00</time>
        <ele>928.0</ele>
      </trkpt>
      <trkpt lat="47.547112" lon="10.206343">
        <time>1970-01-01T00:00:00+00:00</time>
        <ele>929.0</ele>
      </trkpt>
      <trkpt lat="47.546821" lon="10.206217">
        <time>1970-01-01T00:00:00+00:00</time>
        <ele>932.0</ele>
      </trkpt>
      <trkpt lat="47.546617" lon="10.206209">
        <time>1970-01-01T00:00:00+00:00</time>
        <ele>933.0</ele>
      </trkpt>
      <trkpt lat="47.546515" lon="10.206179">
        <time>1970-01-01T00:00:00+00:00</time>
        <ele>934.0</ele>
      </trkpt>
      <trkpt lat="47.546374" lon="10.206086">
        <time>1970-01-01T00:00:00+00:00</time>
        <ele>934.0</ele>
      </trkpt>
      <trkpt lat="47.546155" lon="10.205809">
        <time>1970-01-01T00:00:00+00:00</time>
        <ele>934.0</ele>
      </trkpt>
      <trkpt lat="47.546071" lon="10.205748">
        <time>1970-01-01T00:00:00+00:00</time>
        <ele>935.0</ele>
      </trkpt>
      <trkpt lat="47.545837" lon="10.205645">
        <time>1970-01-01T00:00:00+00:00</time>
        <ele>936.0</ele>
      </trkpt>
      <trkpt lat="47.545704" lon="10.205492">
        <time>1970-01-01T00:00:00+00:00</time>
        <ele>937.0</ele>
      </trkpt>
      <trkpt lat="47.545634" lon="10.205346">
        <time>1970-01-01T00:00:00+00:00</time>
        <ele>938.0</ele>
      </trkpt>
      <trkpt lat="47.545373" lon="10.204642">
        <time>1970-01-01T00:00:00+00:00</time>
        <ele>941.0</ele>
      </trkpt>
      <trkpt lat="47.545314" lon="10.204524">
        <time>1970-01-01T00:00:00+00:00</time>
        <ele>942.0</ele>
      </trkpt>
      <trkpt lat="47.545178" lon="10.204334">
        <time>1970-01-01T00:00:00+00:00</time>
        <ele>943.0</ele>
      </trkpt>
      <trkpt lat="47.544682" lon="10.203895">
        <time>1970-01-01T00:00:00+00:00</time>
        <ele>944.0</ele>
      </trkpt>
      <trkpt lat="47.544315" lon="10.203064">
        <time>1970-01-01T00:00:00+00:00</time>
        <ele>957.0</ele>
      </trkpt>
      <trkpt lat="47.543973" lon="10.202928">
        <time>1970-01-01T00:00:00+00:00</time>
        <ele>953.0</ele>
      </trkpt>
      <trkpt lat="47.543644" lon="10.20224">
        <time>1970-01-01T00:00:00+00:00</time>
        <ele>958.0</ele>
      </trkpt>
      <trkpt lat="47.542792" lon="10.201024">
        <time>1970-01-01T00:00:00+00:00</time>
        <ele>966.0</ele>
      </trkpt>
      <trkpt lat="47.542742" lon="10.20102">
        <time>1970-01-01T00:00:00+00:00</time>
        <ele>966.0</ele>
      </trkpt>
      <trkpt lat="47.542608" lon="10.20101">
        <time>1970-01-01T00:00:00+00:00</time>
        <ele>965.0</ele>
      </trkpt>
      <trkpt lat="47.542499" lon="10.200917">
        <time>1970-01-01T00:00:00+00:00</time>
        <ele>964.0</ele>
      </trkpt>
      <trkpt lat="47.542338" lon="10.200707">
        <time>1970-01-01T00:00:00+00:00</time>
        <ele>962.0</ele>
      </trkpt>
      <trkpt lat="47.541886" lon="10.200308">
        <time>1970-01-01T00:00:00+00:00</time>
        <ele>964.0</ele>
      </trkpt>
      <trkpt lat="47.541402" lon="10.19969">
        <time>1970-01-01T00:00:00+00:00</time>
        <ele>969.0</ele>
      </trkpt>
      <trkpt lat="47.540784" lon="10.198858">
        <time>1970-01-01T00:00:00+00:00</time>
        <ele>974.0</ele>
      </trkpt>
      <trkpt lat="47.540571" lon="10.198413">
        <time>1970-01-01T00:00:00+00:00</time>
        <ele>978.0</ele>
      </trkpt>
      <trkpt lat="47.540491" lon="10.198102">
        <time>1970-01-01T00:00:00+00:00</time>
        <ele>981.0</ele>
      </trkpt>
      <trkpt lat="47.5404" lon="10.197936">
        <time>1970-01-01T00:00:00+00:00</time>
        <ele>983.0</ele>
      </trkpt>
      <trkpt lat="47.539802" lon="10.19783">
        <time>1970-01-01T00:00:00+00:00</time>
        <ele>983.0</ele>
      </trkpt>
      <trkpt lat="47.539313" lon="10.197515">
        <time>1970-01-01T00:00:00+00:00</time>
        <ele>989.0</ele>
      </trkpt>
      <trkpt lat="47.538891" lon="10.196857">
        <time>1970-01-01T00:00:00+00:00</time>
        <ele>997.0</ele>
      </trkpt>
      <trkpt lat="47.538816" lon="10.196619">
        <time>1970-01-01T00:00:00+00:00</time>
        <ele>999.0</ele>
      </trkpt>
      <trkpt lat="47.538155" lon="10.195821">
        <time>1970-01-01T00:00:00+00:00</time>
        <ele>1016.0</ele>
      </trkpt>
      <trkpt lat="47.538157" lon="10.19568">
        <time>1970-01-01T00:00:00+00:00</time>
        <ele>1015.0</ele>
      </trkpt>
      <trkpt lat="47.538193" lon="10.195593">
        <time>1970-01-01T00:00:00+00:00</time>
        <ele>1015.0</ele>
      </trkpt>
      <trkpt lat="47.538359" lon="10.195281">
        <time>1970-01-01T00:00:00+00:00</time>
        <ele>1018.0</ele>
      </trkpt>
      <trkpt lat="47.538455" lon="10.195066">
        <time>1970-01-01T00:00:00+00:00</time>
        <ele>1021.0</ele>
      </trkpt>
      <trkpt lat="47.538475" lon="10.194912">
        <time>1970-01-01T00:00:00+00:00</time>
        <ele>1022.0</ele>
      </trkpt>
      <trkpt lat="47.538428" lon="10.194801">
        <time>1970-01-01T00:00:00+00:00</time>
        <ele>1022.0</ele>
      </trkpt>
      <trkpt lat="47.538365" lon="10.194692">
        <time>1970-01-01T00:00:00+00:00</time>
        <ele>1022.0</ele>
      </trkpt>
      <trkpt lat="47.538002" lon="10.194243">
        <time>1970-01-01T00:00:00+00:00</time>
        <ele>1030.0</ele>
      </trkpt>
      <trkpt lat="47.537842" lon="10.194013">
        <time>1970-01-01T00:00:00+00:00</time>
        <ele>1035.0</ele>
      </trkpt>
      <trkpt lat="47.537692" lon="10.19377">
        <time>1970-01-01T00:00:00+00:00</time>
        <ele>1039.0</ele>
      </trkpt>
      <trkpt lat="47.53751" lon="10.193403">
        <time>1970-01-01T00:00:00+00:00</time>
        <ele>1044.0</ele>
      </trkpt>
      <trkpt lat="47.537278" lon="10.193059">
        <time>1970-01-01T00:00:00+00:00</time>
        <ele>1047.0</ele>
      </trkpt>
      <trkpt lat="47.53723" lon="10.192756">
        <time>1970-01-01T00:00:00+00:00</time>
        <ele>1049.0</ele>
      </trkpt>
      <trkpt lat="47.537084" lon="10.192256">
        <time>1970-01-01T00:00:00+00:00</time>
        <ele>1051.0</ele>
      </trkpt>
      <trkpt lat="47.537122" lon="10.191823">
        <time>1970-01-01T00:00:00+00:00</time>
        <ele>1054.0</ele>
      </trkpt>
      <trkpt lat="47.536973" lon="10.191457">
        <time>1970-01-01T00:00:00+00:00</time>
        <ele>1056.0</ele>
      </trkpt>
      <trkpt lat="47.53693" lon="10.191293">
        <time>1970-01-01T00:00:00+00:00</time>
        <ele>1058.0</ele>
      </trkpt>
      <trkpt lat="47.536753" lon="10.190838">
        <time>1970-01-01T00:00:00+00:00</time>
        <ele>1066.0</ele>
      </trkpt>
      <trkpt lat="47.536669" lon="10.190686">
        <time>1970-01-01T00:00:00+00:00</time>
        <ele>1068.0</ele>
      </trkpt>
      <trkpt lat="47.536582" lon="10.190241">
        <time>1970-01-01T00:00:00+00:00</time>
        <ele>1070.0</ele>
      </trkpt>
      <trkpt lat="47.5364" lon="10.189644">
        <time>1970-01-01T00:00:00+00:00</time>
        <ele>1075.0</ele>
      </trkpt>
      <trkpt lat="47.536369" lon="10.189453">
        <time>1970-01-01T00:00:00+00:00</time>
        <ele>1077.0</ele>
      </trkpt>
      <trkpt lat="47.536348" lon="10.189038">
        <time>1970-01-01T00:00:00+00:00</time>
        <ele>1082.0</ele>
      </trkpt>
      <trkpt lat="47.536373" lon="10.187688">
        <time>1970-01-01T00:00:00+00:00</time>
        <ele>1088.0</ele>
      </trkpt>
      <trkpt lat="47.536264" lon="10.18654">
        <time>1970-01-01T00:00:00+00:00</time>
        <ele>1090.0</ele>
      </trkpt>
      <trkpt lat="47.536215" lon="10.18616">
        <time>1970-01-01T00:00:00+00:00</time>
        <ele>1095.0</ele>
      </trkpt>
      <trkpt lat="47.536189" lon="10.185777">
        <time>1970-01-01T00:00:00+00:00</time>
        <ele>1098.0</ele>
      </trkpt>
      <trkpt lat="47.536076" lon="10.185421">
        <time>1970-01-01T00:00:00+00:00</time>
        <ele>1099.0</ele>
      </trkpt>
      <trkpt lat="47.536023" lon="10.1852">
        <time>1970-01-01T00:00:00+00:00</time>
        <ele>1099.0</ele>
      </trkpt>
      <trkpt lat="47.535608" lon="10.184481">
        <time>1970-01-01T00:00:00+00:00</time>
        <ele>1105.0</ele>
      </trkpt>
      <trkpt lat="47.535544" lon="10.184192">
        <time>1970-01-01T00:00:00+00:00</time>
        <ele>1109.0</ele>
      </trkpt>
      <trkpt lat="47.535511" lon="10.183885">
        <time>1970-01-01T00:00:00+00:00</time>
        <ele>1115.0</ele>
      </trkpt>
      <trkpt lat="47.535461" lon="10.183591">
        <time>1970-01-01T00:00:00+00:00</time>
        <ele>1119.0</ele>
      </trkpt>
      <trkpt lat="47.535066" lon="10.182815">
        <time>1970-01-01T00:00:00+00:00</time>
        <ele>1121.0</ele>
      </trkpt>
      <trkpt lat="47.534864" lon="10.182196">
        <time>1970-01-01T00:00:00+00:00</time>
        <ele>1121.0</ele>
      </trkpt>
      <trkpt lat="47.534719" lon="10.18142">
        <time>1970-01-01T00:00:00+00:00</time>
        <ele>1125.0</ele>
      </trkpt>
      <trkpt lat="47.534238" lon="10.180256">
        <time>1970-01-01T00:00:00+00:00</time>
        <ele>1134.0</ele>
      </trkpt>
      <trkpt lat="47.534046" lon="10.179012">
        <time>1970-01-01T00:00:00+00:00</time>
        <ele>1143.0</ele>
      </trkpt>
      <trkpt lat="47.533988" lon="10.178737">
        <time>1970-01-01T00:00:00+00:00</time>
        <ele>1144.0</ele>
      </trkpt>
      <trkpt lat="47.533982" lon="10.178301">
        <time>1970-01-01T00:00:00+00:00</time>
        <ele>1148.0</ele>
      </trkpt>
      <trkpt lat="47.533911" lon="10.178145">
        <time>1970-01-01T00:00:00+00:00</time>
        <ele>1148.0</ele>
      </trkpt>
      <trkpt lat="47.533911" lon="10.178145">
        <time>1970-01-01T00:00:00+00:00</time>
        <ele>1148.0</ele>
      </trkpt>
      <trkpt lat="47.533982" lon="10.178301">
        <time>1970-01-01T00:00:00+00:00</time>
        <ele>1148.0</ele>
      </trkpt>
      <trkpt lat="47.533988" lon="10.178737">
        <time>1970-01-01T00:00:00+00:00</time>
        <ele>1144.0</ele>
      </trkpt>
      <trkpt lat="47.534046" lon="10.179012">
        <time>1970-01-01T00:00:00+00:00</time>
        <ele>1143.0</ele>
      </trkpt>
      <trkpt lat="47.534238" lon="10.180256">
        <time>1970-01-01T00:00:00+00:00</time>
        <ele>1134.0</ele>
      </trkpt>
      <trkpt lat="47.534719" lon="10.18142">
        <time>1970-01-01T00:00:00+00:00</time>
        <ele>1125.0</ele>
      </trkpt>
      <trkpt lat="47.534864" lon="10.182196">
        <time>1970-01-01T00:00:00+00:00</time>
        <ele>1121.0</ele>
      </trkpt>
      <trkpt lat="47.535066" lon="10.182815">
        <time>1970-01-01T00:00:00+00:00</time>
        <ele>1121.0</ele>
      </trkpt>
      <trkpt lat="47.535461" lon="10.183591">
        <time>1970-01-01T00:00:00+00:00</time>
        <ele>1119.0</ele>
      </trkpt>
      <trkpt lat="47.535511" lon="10.183885">
        <time>1970-01-01T00:00:00+00:00</time>
        <ele>1115.0</ele>
      </trkpt>
      <trkpt lat="47.535544" lon="10.184192">
        <time>1970-01-01T00:00:00+00:00</time>
        <ele>1109.0</ele>
      </trkpt>
      <trkpt lat="47.535608" lon="10.184481">
        <time>1970-01-01T00:00:00+00:00</time>
        <ele>1105.0</ele>
      </trkpt>
      <trkpt lat="47.536023" lon="10.1852">
        <time>1970-01-01T00:00:00+00:00</time>
        <ele>1099.0</ele>
      </trkpt>
      <trkpt lat="47.536076" lon="10.185421">
        <time>1970-01-01T00:00:00+00:00</time>
        <ele>1099.0</ele>
      </trkpt>
      <trkpt lat="47.536189" lon="10.185777">
        <time>1970-01-01T00:00:00+00:00</time>
        <ele>1098.0</ele>
      </trkpt>
      <trkpt lat="47.536215" lon="10.18616">
        <time>1970-01-01T00:00:00+00:00</time>
        <ele>1095.0</ele>
      </trkpt>
      <trkpt lat="47.536264" lon="10.18654">
        <time>1970-01-01T00:00:00+00:00</time>
        <ele>1090.0</ele>
      </trkpt>
      <trkpt lat="47.536373" lon="10.187688">
        <time>1970-01-01T00:00:00+00:00</time>
        <ele>1088.0</ele>
      </trkpt>
      <trkpt lat="47.536348" lon="10.189038">
        <time>1970-01-01T00:00:00+00:00</time>
        <ele>1082.0</ele>
      </trkpt>
      <trkpt lat="47.536369" lon="10.189453">
        <time>1970-01-01T00:00:00+00:00</time>
        <ele>1077.0</ele>
      </trkpt>
      <trkpt lat="47.5364" lon="10.189644">
        <time>1970-01-01T00:00:00+00:00</time>
        <ele>1075.0</ele>
      </trkpt>
      <trkpt lat="47.536582" lon="10.190241">
        <time>1970-01-01T00:00:00+00:00</time>
        <ele>1070.0</ele>
      </trkpt>
      <trkpt lat="47.536669" lon="10.190686">
        <time>1970-01-01T00:00:00+00:00</time>
        <ele>1068.0</ele>
      </trkpt>
      <trkpt lat="47.536753" lon="10.190838">
        <time>1970-01-01T00:00:00+00:00</time>
        <ele>1066.0</ele>
      </trkpt>
      <trkpt lat="47.53693" lon="10.191293">
        <time>1970-01-01T00:00:00+00:00</time>
        <ele>1058.0</ele>
      </trkpt>
      <trkpt lat="47.536973" lon="10.191457">
        <time>1970-01-01T00:00:00+00:00</time>
        <ele>1056.0</ele>
      </trkpt>
      <trkpt lat="47.537122" lon="10.191823">
        <time>1970-01-01T00:00:00+00:00</time>
        <ele>1054.0</ele>
      </trkpt>
      <trkpt lat="47.537084" lon="10.192256">
        <time>1970-01-01T00:00:00+00:00</time>
        <ele>1051.0</ele>
      </trkpt>
      <trkpt lat="47.53723" lon="10.192756">
        <time>1970-01-01T00:00:00+00:00</time>
        <ele>1049.0</ele>
      </trkpt>
      <trkpt lat="47.537278" lon="10.193059">
        <time>1970-01-01T00:00:00+00:00</time>
        <ele>1047.0</ele>
      </trkpt>
      <trkpt lat="47.53751" lon="10.193403">
        <time>1970-01-01T00:00:00+00:00</time>
        <ele>1044.0</ele>
      </trkpt>
      <trkpt lat="47.537692" lon="10.19377">
        <time>1970-01-01T00:00:00+00:00</time>
        <ele>1039.0</ele>
      </trkpt>
      <trkpt lat="47.537842" lon="10.194013">
        <time>1970-01-01T00:00:00+00:00</time>
        <ele>1035.0</ele>
      </trkpt>
      <trkpt lat="47.538002" lon="10.194243">
        <time>1970-01-01T00:00:00+00:00</time>
        <ele>1030.0</ele>
      </trkpt>
      <trkpt lat="47.538365" lon="10.194692">
        <time>1970-01-01T00:00:00+00:00</time>
        <ele>1022.0</ele>
      </trkpt>
      <trkpt lat="47.538428" lon="10.194801">
        <time>1970-01-01T00:00:00+00:00</time>
        <ele>1022.0</ele>
      </trkpt>
      <trkpt lat="47.538475" lon="10.194912">
        <time>1970-01-01T00:00:00+00:00</time>
        <ele>1022.0</ele>
      </trkpt>
      <trkpt lat="47.538455" lon="10.195066">
        <time>1970-01-01T00:00:00+00:00</time>
        <ele>1021.0</ele>
      </trkpt>
      <trkpt lat="47.538359" lon="10.195281">
        <time>1970-01-01T00:00:00+00:00</time>
        <ele>1018.0</ele>
      </trkpt>
      <trkpt lat="47.538193" lon="10.195593">
        <time>1970-01-01T00:00:00+00:00</time>
        <ele>1015.0</ele>
      </trkpt>
      <trkpt lat="47.538157" lon="10.19568">
        <time>1970-01-01T00:00:00+00:00</time>
        <ele>1015.0</ele>
      </trkpt>
      <trkpt lat="47.538155" lon="10.195821">
        <time>1970-01-01T00:00:00+00:00</time>
        <ele>1016.0</ele>
      </trkpt>
      <trkpt lat="47.538816" lon="10.196619">
        <time>1970-01-01T00:00:00+00:00</time>
        <ele>999.0</ele>
      </trkpt>
      <trkpt lat="47.538891" lon="10.196857">
        <time>1970-01-01T00:00:00+00:00</time>
        <ele>997.0</ele>
      </trkpt>
      <trkpt lat="47.539313" lon="10.197515">
        <time>1970-01-01T00:00:00+00:00</time>
        <ele>989.0</ele>
      </trkpt>
      <trkpt lat="47.539802" lon="10.19783">
        <time>1970-01-01T00:00:00+00:00</time>
        <ele>983.0</ele>
      </trkpt>
      <trkpt lat="47.5404" lon="10.197936">
        <time>1970-01-01T00:00:00+00:00</time>
        <ele>983.0</ele>
      </trkpt>
      <trkpt lat="47.540491" lon="10.198102">
        <time>1970-01-01T00:00:00+00:00</time>
        <ele>981.0</ele>
      </trkpt>
      <trkpt lat="47.540571" lon="10.198413">
        <time>1970-01-01T00:00:00+00:00</time>
        <ele>978.0</ele>
      </trkpt>
      <trkpt lat="47.540784" lon="10.198858">
        <time>1970-01-01T00:00:00+00:00</time>
        <ele>974.0</ele>
      </trkpt>
      <trkpt lat="47.541402" lon="10.19969">
        <time>1970-01-01T00:00:00+00:00</time>
        <ele>969.0</ele>
      </trkpt>
      <trkpt lat="47.541886" lon="10.200308">
        <time>1970-01-01T00:00:00+00:00</time>
        <ele>964.0</ele>
      </trkpt>
      <trkpt lat="47.542338" lon="10.200707">
        <time>1970-01-01T00:00:00+00:00</time>
        <ele>962.0</ele>
      </trkpt>
      <trkpt lat="47.542499" lon="10.200917">
        <time>1970-01-01T00:00:00+00:00</time>
        <ele>964.0</ele>
      </trkpt>
      <trkpt lat="47.542608" lon="10.20101">
        <time>1970-01-01T00:00:00+00:00</time>
        <ele>965.0</ele>
      </trkpt>
      <trkpt lat="47.542742" lon="10.20102">
        <time>1970-01-01T00:00:00+00:00</time>
        <ele>966.0</ele>
      </trkpt>
      <trkpt lat="47.542792" lon="10.201024">
        <time>1970-01-01T00:00:00+00:00</time>
        <ele>966.0</ele>
      </trkpt>
      <trkpt lat="47.543644" lon="10.20224">
        <time>1970-01-01T00:00:00+00:00</time>
        <ele>958.0</ele>
      </trkpt>
      <trkpt lat="47.543973" lon="10.202928">
        <time>1970-01-01T00:00:00+00:00</time>
        <ele>953.0</ele>
      </trkpt>
      <trkpt lat="47.544315" lon="10.203064">
        <time>1970-01-01T00:00:00+00:00</time>
        <ele>957.0</ele>
      </trkpt>
      <trkpt lat="47.544682" lon="10.203895">
        <time>1970-01-01T00:00:00+00:00</time>
        <ele>944.0</ele>
      </trkpt>
      <trkpt lat="47.545178" lon="10.204334">
        <time>1970-01-01T00:00:00+00:00</time>
        <ele>943.0</ele>
      </trkpt>
      <trkpt lat="47.545314" lon="10.204524">
        <time>1970-01-01T00:00:00+00:00</time>
        <ele>942.0</ele>
      </trkpt>
      <trkpt lat="47.545373" lon="10.204642">
        <time>1970-01-01T00:00:00+00:00</time>
        <ele>941.0</ele>
      </trkpt>
      <trkpt lat="47.545634" lon="10.205346">
        <time>1970-01-01T00:00:00+00:00</time>
        <ele>938.0</ele>
      </trkpt>
      <trkpt lat="47.545704" lon="10.205492">
        <time>1970-01-01T00:00:00+00:00</time>
        <ele>937.0</ele>
      </trkpt>
      <trkpt lat="47.545837" lon="10.205645">
        <time>1970-01-01T00:00:00+00:00</time>
        <ele>936.0</ele>
      </trkpt>
      <trkpt lat="47.546071" lon="10.205748">
        <time>1970-01-01T00:00:00+00:00</time>
        <ele>935.0</ele>
      </trkpt>
      <trkpt lat="47.546155" lon="10.205809">
        <time>1970-01-01T00:00:00+00:00</time>
        <ele>934.0</ele>
      </trkpt>
      <trkpt lat="47.546374" lon="10.206086">
        <time>1970-01-01T00:00:00+00:00</time>
        <ele>934.0</ele>
      </trkpt>
      <trkpt lat="47.546515" lon="10.206179">
        <time>1970-01-01T00:00:00+00:00</time>
        <ele>934.0</ele>
      </trkpt>
      <trkpt lat="47.546617" lon="10.206209">
        <time>1970-01-01T00:00:00+00:00</time>
        <ele>933.0</ele>
      </trkpt>
      <trkpt lat="47.546821" lon="10.206217">
        <time>1970-01-01T00:00:00+00:00</time>
        <ele>932.0</ele>
      </trkpt>
      <trkpt lat="47.547112" lon="10.206343">
        <time>1970-01-01T00:00:00+00:00</time>
        <ele>929.0</ele>
      </trkpt>
      <trkpt lat="47.547262" lon="10.20644">
        <time>1970-01-01T00:00:00+00:00</time>
        <ele>928.0</ele>
      </trkpt>
      <trkpt lat="47.547394" lon="10.206558">
        <time>1970-01-01T00:00:00+00:00</time>
        <ele>927.0</ele>
      </trkpt>
      <trkpt lat="47.547631" lon="10.207072">
        <time>1970-01-01T00:00:00+00:00</time>
        <ele>916.0</ele>
      </trkpt>
      <trkpt lat="47.547655" lon="10.207122">
        <time>1970-01-01T00:00:00+00:00</time>
        <ele>916.0</ele>
      </trkpt>
      <trkpt lat="47.548054" lon="10.207931">
        <time>1970-01-01T00:00:00+00:00</time>
        <ele>918.0</ele>
      </trkpt>
      <trkpt lat="47.548401" lon="10.20854">
        <time>1970-01-01T00:00:00+00:00</time>
        <ele>915.0</ele>
      </trkpt>
      <trkpt lat="47.548705" lon="10.208963">
        <time>1970-01-01T00:00:00+00:00</time>
        <ele>908.0</ele>
      </trkpt>
      <trkpt lat="47.548831" lon="10.209005">
        <time>1970-01-01T00:00:00+00:00</time>
        <ele>909.0</ele>
      </trkpt>
      <trkpt lat="47.549055" lon="10.209008">
        <time>1970-01-01T00:00:00+00:00</time>
        <ele>911.0</ele>
      </trkpt>
      <trkpt lat="47.549136" lon="10.209032">
        <time>1970-01-01T00:00:00+00:00</time>
        <ele>910.0</ele>
      </trkpt>
      <trkpt lat="47.549246" lon="10.209234">
        <time>1970-01-01T00:00:00+00:00</time>
        <ele>907.0</ele>
      </trkpt>
      <trkpt lat="47.549459" lon="10.209451">
        <time>1970-01-01T00:00:00+00:00</time>
        <ele>901.0</ele>
      </trkpt>
      <trkpt lat="47.549691" lon="10.209554">
        <time>1970-01-01T00:00:00+00:00</time>
        <ele>897.0</ele>
      </trkpt>
      <trkpt lat="47.549807" lon="10.209624">
        <time>1970-01-01T00:00:00+00:00</time>
        <ele>896.0</ele>
      </trkpt>
      <trkpt lat="47.55012" lon="10.20967">
        <time>1970-01-01T00:00:00+00:00</time>
        <ele>896.0</ele>
      </trkpt>
      <trkpt lat="47.550212" lon="10.209702">
        <time>1970-01-01T00:00:00+00:00</time>
        <ele>895.0</ele>
      </trkpt>
      <trkpt lat="47.550336" lon="10.209847">
        <time>1970-01-01T00:00:00+00:00</time>
        <ele>894.0</ele>
      </trkpt>
      <trkpt lat="47.550772" lon="10.209993">
        <time>1970-01-01T00:00:00+00:00</time>
        <ele>880.0</ele>
      </trkpt>
      <trkpt lat="47.550851" lon="10.210046">
        <time>1970-01-01T00:00:00+00:00</time>
        <ele>877.0</ele>
      </trkpt>
      <trkpt lat="47.551013" lon="10.210327">
        <time>1970-01-01T00:00:00+00:00</time>
        <ele>869.0</ele>
      </trkpt>
      <trkpt lat="47.551122" lon="10.210465">
        <time>1970-01-01T00:00:00+00:00</time>
        <ele>864.0</ele>
      </trkpt>
      <trkpt lat="47.551305" lon="10.210863">
        <time>1970-01-01T00:00:00+00:00</time>
        <ele>856.0</ele>
      </trkpt>
      <trkpt lat="47.551609" lon="10.211338">
        <time>1970-01-01T00:00:00+00:00</time>
        <ele>856.0</ele>
      </trkpt>
      <trkpt lat="47.551733" lon="10.211562">
        <time>1970-01-01T00:00:00+00:00</time>
        <ele>853.0</ele>
      </trkpt>
      <trkpt lat="47.552136" lon="10.212086">
        <time>1970-01-01T00:00:00+00:00</time>
        <ele>844.0</ele>
      </trkpt>
      <trkpt lat="47.552222" lon="10.212167">
        <time>1970-01-01T00:00:00+00:00</time>
        <ele>842.0</ele>
      </trkpt>
      <trkpt lat="47.552631" lon="10.212539">
        <time>1970-01-01T00:00:00+00:00</time>
        <ele>834.0</ele>
      </trkpt>
      <trkpt lat="47.553367" lon="10.212785">
        <time>1970-01-01T00:00:00+00:00</time>
        <ele>812.0</ele>
      </trkpt>
      <trkpt lat="47.553477" lon="10.212866">
        <time>1970-01-01T00:00:00+00:00</time>
        <ele>807.0</ele>
      </trkpt>
      <trkpt lat="47.553552" lon="10.213006">
        <time>1970-01-01T00:00:00+00:00</time>
        <ele>805.0</ele>
      </trkpt>
      <trkpt lat="47.553604" lon="10.213168">
        <time>1970-01-01T00:00:00+00:00</time>
        <ele>803.0</ele>
      </trkpt>
      <trkpt lat="47.553723" lon="10.213311">
        <time>1970-01-01T00:00:00+00:00</time>
        <ele>801.0</ele>
      </trkpt>
      <trkpt lat="47.5538" lon="10.213371">
        <time>1970-01-01T00:00:00+00:00</time>
        <ele>801.0</ele>
      </trkpt>
      <trkpt lat="47.554061" lon="10.213352">
        <time>1970-01-01T00:00:00+00:00</time>
        <ele>794.0</ele>
      </trkpt>
      <trkpt lat="47.554286" lon="10.213364">
        <time>1970-01-01T00:00:00+00:00</time>
        <ele>783.0</ele>
      </trkpt>
      <trkpt lat="47.554312" lon="10.213398">
        <time>1970-01-01T00:00:00+00:00</time>
        <ele>782.0</ele>
      </trkpt>
      <trkpt lat="47.554587" lon="10.213744">
        <time>1970-01-01T00:00:00+00:00</time>
        <ele>772.0</ele>
      </trkpt>
      <trkpt lat="47.554751" lon="10.213878">
        <time>1970-01-01T00:00:00+00:00</time>
        <ele>766.0</ele>
      </trkpt>
      <trkpt lat="47.554861" lon="10.213903">
        <time>1970-01-01T00:00:00+00:00</time>
        <ele>762.0</ele>
      </trkpt>
      <trkpt lat="47.554884" lon="10.213898">
        <time>1970-01-01T00:00:00+00:00</time>
        <ele>761.0</ele>
      </trkpt>
      <trkpt lat="47.554982" lon="10.213877">
        <time>1970-01-01T00:00:00+00:00</time>
        <ele>759.0</ele>
      </trkpt>
      <trkpt lat="47.55517" lon="10.213822">
        <time>1970-01-01T00:00:00+00:00</time>
        <ele>758.0</ele>
      </trkpt>
      <trkpt lat="47.555316" lon="10.213833">
        <time>1970-01-01T00:00:00+00:00</time>
        <ele>756.0</ele>
      </trkpt>
      <trkpt lat="47.555687" lon="10.214002">
        <time>1970-01-01T00:00:00+00:00</time>
        <ele>752.0</ele>
      </trkpt>
      <trkpt lat="47.555965" lon="10.214154">
        <time>1970-01-01T00:00:00+00:00</time>
        <ele>749.0</ele>
      </trkpt>
      <trkpt lat="47.555909" lon="10.214338">
        <time>1970-01-01T00:00:00+00:00</time>
        <ele>749.0</ele>
      </trkpt>
      <trkpt lat="47.555961" lon="10.214422">
        <time>1970-01-01T00:00:00+00:00</time>
        <ele>749.0</ele>
      </trkpt>
      <trkpt lat="47.556026" lon="10.214517">
        <time>1970-01-01T00:00:00+00:00</time>
        <ele>748.0</ele>
      </trkpt>
      <trkpt lat="47.556176" lon="10.214683">
        <time>1970-01-01T00:00:00+00:00</time>
        <ele>745.0</ele>
      </trkpt>
      <trkpt lat="47.556265" lon="10.21478">
        <time>1970-01-01T00:00:00+00:00</time>
        <ele>744.0</ele>
      </trkpt>
      <trkpt lat="47.556348" lon="10.214757">
        <time>1970-01-01T00:00:00+00:00</time>
        <ele>744.0</ele>
      </trkpt>
      <trkpt lat="47.556664" lon="10.214934">
        <time>1970-01-01T00:00:00+00:00</time>
        <ele>744.0</ele>
      </trkpt>
      <trkpt lat="47.556786" lon="10.214437">
        <time>1970-01-01T00:00:00+00:00</time>
        <ele>744.0</ele>
      </trkpt>
      <trkpt lat="47.556838" lon="10.214304">
        <time>1970-01-01T00:00:00+00:00</time>
        <ele>744.0</ele>
      </trkpt>
      <trkpt lat="47.556911" lon="10.214201">
        <time>1970-01-01T00:00:00+00:00</time>
        <ele>744.0</ele>
      </trkpt>
      <trkpt lat="47.557099" lon="10.214009">
        <time>1970-01-01T00:00:00+00:00</time>
        <ele>743.0</ele>
      </trkpt>
      <trkpt lat="47.557362" lon="10.213738">
        <time>1970-01-01T00:00:00+00:00</time>
        <ele>740.0</ele>
      </trkpt>
      <trkpt lat="47.557453" lon="10.213644">
        <time>1970-01-01T00:00:00+00:00</time>
        <ele>740.0</ele>
      </trkpt>
      <trkpt lat="47.557416" lon="10.213488">
        <time>1970-01-01T00:00:00+00:00</time>
        <ele>739.0</ele>
      </trkpt>
      <trkpt lat="47.557636" lon="10.212123">
        <time>1970-01-01T00:00:00+00:00</time>
        <ele>736.0</ele>
      </trkpt>
      <trkpt lat="47.557684" lon="10.211932">
        <time>1970-01-01T00:00:00+00:00</time>
        <ele>736.0</ele>
      </trkpt>
      <trkpt lat="47.557807" lon="10.211605">
        <time>1970-01-01T00:00:00+00:00</time>
        <ele>735.0</ele>
      </trkpt>
      <trkpt lat="47.558178" lon="10.211206">
        <time>1970-01-01T00:00:00+00:00</time>
        <ele>733.0</ele>
      </trkpt>
      <trkpt lat="47.558364" lon="10.211223">
        <time>1970-01-01T00:00:00+00:00</time>
        <ele>733.0</ele>
      </trkpt>
      <trkpt lat="47.55885" lon="10.211372">
        <time>1970-01-01T00:00:00+00:00</time>
        <ele>733.0</ele>
      </trkpt>
      <trkpt lat="47.558941" lon="10.210946">
        <time>1970-01-01T00:00:00+00:00</time>
        <ele>732.0</ele>
      </trkpt>
      <trkpt lat="47.559082" lon="10.210544">
        <time>1970-01-01T00:00:00+00:00</time>
        <ele>732.0</ele>
      </trkpt>
      <trkpt lat="47.559262" lon="10.210133">
        <time>1970-01-01T00:00:00+00:00</time>
        <ele>731.0</ele>
      </trkpt>
      <trkpt lat="47.559003" lon="10.210044">
        <time>1970-01-01T00:00:00+00:00</time>
        <ele>734.0</ele>
      </trkpt>
    </trkseg>
  </trk>
</gpx>
